Kingsport, TN

8:07 AM EST on February 07, 2016 (GMT -0500)
Tri-Cities Regional Tennessee / Virginia

Weather History for KTRI - November, 2013

Change the Weather History Date:

Tuesday, November 5, 2013

  Actual Average Record
Temperature  
Mean Temperature 51 °F 50 °F  
Max Temperature 64 °F 63 °F 79 °F (1948)
Min Temperature 38 °F 37 °F 18 °F (1991)
Degree Days  
Heating Degree Days 14 15  
Month to date heating degree days 73 72  
Since 1 July heating degree days 314 407  
Cooling Degree Days 0 0  
Month to date cooling degree days 0 0  
Year to date cooling degree days 1003 980  
Growing Degree Days 1 (Base 50)    
Moisture  
Dew Point 29 °F    
Average Humidity 48    
Maximum Humidity 70    
Minimum Humidity 25    
Precipitation  
Precipitation 0.00 in 0.09 in 1.20 in (1938)
Month to date precipitation 0.31 0.45  
Year to date precipitation 47.71 34.99  
Snow  
Snow 0.00 in 0.00 in - ()
Month to date snowfall 0.0 0.0  
Since 1 July snowfall T 0.1  
Since 1 September snowfall T 0.1  
Snow Depth 0.00 in    
Sea Level Pressure  
Sea Level Pressure 30.39 in    
Wind  
Wind Speed 2 mph (NE)    
Max Wind Speed 9 mph    
Max Gust Speed 14 mph    
Visibility 10 miles    
Events      
T = Trace of Precipitation, MM = Missing Value Source: NWS Daily Summary

Daily Weather History Graph

Daily Weather History Graph

Search for Another Location

Airport or City:

Trip Planner

Search our weather history database for the weather conditions in past years. The results will help you decide how hot, cold, wet, or windy it might be!

Date:

Astronomy

Nov. 05, 2013 Rise Set
Actual Time 6:57 AM EST 5:28 PM EST
Civil Twilight 6:30 AM EST 5:55 PM EST
Nautical Twilight 5:59 AM EST 6:26 PM EST
Astronomical Twilight 5:29 AM EST 6:56 PM EST
Moon 9:08 AM EST (11/5) 7:31 PM EST (11/5)
Length of Visible Light 11h 25m
Length of Day
10h 31m
Waxing Crescent, 6% of the Moon is Illuminated
Nov 5
Waxing Crescent
Nov 10
First Quarter
Nov 17
Full
Nov 25
Last Quarter
Dec 2
New

Hourly Weather History & Observations

Time (EST) Temp. Windchill Dew Point Humidity Pressure Visibility Wind Dir Wind Speed Gust Speed Precip Events Conditions
12:53 AM 44.1 °F - 30.0 °F 58% 30.39 in 10.0 mi Calm Calm - N/A   Mostly Cloudy
1:53 AM 43.0 °F 40.3 °F 28.9 °F 58% 30.40 in 10.0 mi North 4.6 mph - N/A   Mostly Cloudy
2:53 AM 41.0 °F 38.0 °F 28.9 °F 62% 30.43 in 10.0 mi North 4.6 mph - N/A   Mostly Cloudy
3:53 AM 39.9 °F - 28.9 °F 65% 30.43 in 10.0 mi Calm Calm - N/A   Mostly Cloudy
4:53 AM 41.0 °F 39.0 °F 30.0 °F 65% 30.43 in 10.0 mi NE 3.5 mph - N/A   Mostly Cloudy
5:53 AM 41.0 °F - 30.0 °F 65% 30.44 in 10.0 mi Calm Calm - N/A   Mostly Cloudy
6:53 AM 39.0 °F 35.7 °F 30.0 °F 70% 30.47 in 10.0 mi East 4.6 mph - N/A   Mostly Cloudy
7:53 AM 41.0 °F - 32.0 °F 70% 30.48 in 10.0 mi Calm Calm - N/A   Mostly Cloudy
8:53 AM 45.0 °F 41.2 °F 30.0 °F 56% 30.46 in 10.0 mi ENE 6.9 mph - N/A   Mostly Cloudy
9:53 AM 48.0 °F - 30.0 °F 50% 30.45 in 10.0 mi Calm Calm - N/A   Mostly Cloudy
10:53 AM 51.1 °F - 30.0 °F 44% 30.44 in 10.0 mi Variable 3.5 mph - N/A   Mostly Cloudy
11:53 AM 57.9 °F - 28.9 °F 33% 30.41 in 10.0 mi Calm Calm - N/A   Mostly Cloudy
12:53 PM 57.9 °F - 28.9 °F 33% 30.38 in 10.0 mi Calm Calm - N/A   Mostly Cloudy
1:53 PM 61.0 °F - 28.0 °F 29% 30.36 in 10.0 mi Calm Calm - N/A   Mostly Cloudy
2:53 PM 63.0 °F - 27.0 °F 26% 30.35 in 10.0 mi Calm Calm - N/A   Mostly Cloudy
3:53 PM 63.0 °F - 28.0 °F 27% 30.34 in 10.0 mi Calm Calm - N/A   Mostly Cloudy
4:53 PM 63.0 °F - 28.9 °F 28% 30.33 in 10.0 mi Calm Calm - N/A   Mostly Cloudy
5:53 PM 57.9 °F - 30.9 °F 36% 30.34 in 10.0 mi Calm Calm - N/A   Mostly Cloudy
6:53 PM 51.1 °F - 32.0 °F 48% 30.36 in 10.0 mi Calm Calm - N/A   Mostly Cloudy
7:53 PM 54.0 °F - 28.0 °F 37% 30.36 in 10.0 mi SSE 5.8 mph - N/A   Mostly Cloudy
8:53 PM 54.0 °F - 26.1 °F 34% 30.36 in 10.0 mi Variable 3.5 mph - N/A   Mostly Cloudy
9:53 PM 48.9 °F - 28.9 °F 46% 30.36 in 10.0 mi Calm Calm - N/A   Scattered Clouds
10:53 PM 45.0 °F - 30.9 °F 58% 30.36 in 10.0 mi Calm Calm - N/A   Partly Cloudy
11:53 PM 42.1 °F - 30.9 °F 65% 30.34 in 10.0 mi Calm Calm - N/A   Clear